Find Globalstar M003

NORAD ID: 25165 Int'l Des: 1998-008 Owner: GLOBT Country: US Constellation: globalstar operational
LEOCIRCULAR

リアルタイム位置

3D地球を読み込み中...

Globalstar M003について

説明を読み込み中...

次回通過

Passes for default location (London). Set your location on the main map for personalized predictions.

高度履歴

Loading altitude history...

軌道要素

1 25165U 98008D 26104.64412372 -.00000182 00000-0 -99047-3 0 9991
2 25165 51.9854 53.5317 0007814 174.9529 356.7502 12.12017435269779
Epoch: Apr 14, 2026 • Age: 9 hours

現在のステータス

高度 1634.0 km
速度 7.06 km/s
衛星直下点 35.14°N, 127.55°W
打ち上げ日 Feb 14, 1998
運用期間 28.1 years
タイプ communications

技術仕様

分類 Payload
質量 450.00 kg
乾燥質量 380.00 kg
総質量 450.00 kg
長さ 1.50 m
直径 0.60 m
スパン 12.00 m
形状 Box + 2 Pan
製造者 LOR
バスタイプ LS-400
フェーズステータス In Orbit
所有者/国 GLOBT/US

Most Searched